QPF
0.12 0.12 0.13 0.11 0.05 0.02 0.03 0.03 0.02 0.03 0.03 0.02 0.02 0.01 0.02 0.04 0.03 0.06 0.08 0.04 0.02 0.01 0.03 0.05 0.08 0.09 0.10 0.10 0.10 0.09 0.09 0.08 0.08 0.07 0.06 0.05 0.04 0.04 0.04 0.05 0.05 0.05 0.04
0.20 0.19 0.19 0.16 0.08 0.06 0.06 0.04 0.03 0.05 0.05 0.04 0.04 0.03 0.03 0.04 0.04 0.05 0.07 0.06 0.04 0.02 0.03 0.05 0.08 0.11 0.12 0.11 0.11 0.11 0.11 0.09 0.09 0.09 0.08 0.07 0.06 0.05 0.05 0.05 0.05 0.05 0.05
0.38 0.33 0.25 0.20 0.14 0.09 0.08 0.08 0.06 0.06 0.05 0.06 0.06 0.04 0.04 0.05 0.06 0.06 0.06 0.08 0.08 0.06 0.04 0.04 0.05 0.07 0.09 0.10 0.11 0.14 0.14 0.13 0.12 0.12 0.12 0.11 0.09 0.08 0.06 0.05 0.05 0.05 0.04
0.51 0.41 0.31 0.22 0.17 0.16 0.17 0.16 0.12 0.10 0.08 0.09 0.08 0.06 0.05 0.04 0.04 0.05 0.06 0.08 0.10 0.11 0.09 0.05 0.04 0.05 0.07 0.09 0.09 0.11 0.11 0.11 0.11 0.12 0.12 0.11 0.10 0.10 0.09 0.08 0.07 0.07 0.06
0.46 0.38 0.32 0.29 0.25 0.23 0.22 0.18 0.17 0.16 0.14 0.11 0.08 0.09 0.07 0.06 0.06 0.06 0.07 0.07 0.08 0.10 0.11 0.08 0.04 0.04 0.04 0.07 0.07 0.08 0.09 0.09 0.10 0.11 0.12 0.12 0.13 0.14 0.12 0.09 0.08 0.08 0.08
0.42 0.36 0.31 0.26 0.25 0.25 0.24 0.25 0.25 0.20 0.16 0.12 0.08 0.09 0.08 0.08 0.07 0.07 0.06 0.05 0.05 0.05 0.06 0.07 0.07 0.05 0.03 0.04 0.05 0.06 0.06 0.07 0.08 0.09 0.11 0.12 0.14 0.14 0.14 0.14 0.13 0.12 0.12
0.40 0.40 0.37 0.30 0.26 0.25 0.24 0.25 0.24 0.22 0.17 0.15 0.16 0.13 0.10 0.10 0.09 0.07 0.06 0.05 0.04 0.03 0.02 0.02 0.02 0.04 0.03 0.02 0.02 0.02 0.03 0.04 0.05 0.06 0.06 0.08 0.09 0.11 0.12 0.13 0.13 0.14 0.14
0.31 0.32 0.34 0.31 0.28 0.27 0.26 0.25 0.26 0.27 0.19 0.15 0.18 0.17 0.14 0.13 0.10 0.06 0.04 0.03 0.02 0.01 0.01 0.01 0.02 0.02 0.02 0.01 0.01 0.02 0.03 0.04 0.05 0.05 0.04 0.03 0.04 0.06 0.08 0.12 0.15 0.16 0.16
0.22 0.24 0.28 0.27 0.26 0.26 0.25 0.23 0.22 0.21 0.18 0.14 0.13 0.17 0.17 0.15 0.11 0.08 0.04 0.03 0.02 0.02 0.01 0.01 0.01 0.01 0.01 0.01 0.01 0.01 0.02 0.04 0.06 0.07 0.05 0.05 0.05 0.06 0.08 0.09 0.09 0.10 0.11
0.19 0.19 0.23 0.26 0.22 0.20 0.21 0.20 0.19 0.16 0.16 0.14 0.10 0.10 0.12 0.14 0.13 0.12 0.08 0.05 0.03 0.02 0.01 0.01 0.01 0.01 0.01 0.01 0.02 0.02 0.03 0.03 0.04 0.04 0.04 0.04 0.04 0.04 0.05 0.05 0.06 0.07 0.08
0.16 0.15 0.15 0.18 0.20 0.18 0.15 0.13 0.12 0.12 0.11 0.10 0.08 0.07 0.07 0.08 0.10 0.11 0.09 0.06 0.04 0.02 0.01 0.01 0.02 0.02 0.02 0.02 0.02 0.02 0.02 0.02 0.03 0.03 0.03 0.04 0.04 0.04 0.05 0.05 0.05 0.05 0.06
0.17 0.17 0.16 0.15 0.16 0.16 0.13 0.11 0.10 0.09 0.09 0.09 0.08 0.07 0.06 0.06 0.07 0.08 0.09 0.07 0.05 0.03 0.02 0.02 0.02 0.02 0.01 0.01 0.01 0.01 0.01 0.01 0.01 0.02 0.02 0.02 0.02 0.02 0.02 0.03 0.04 0.04 0.04
0.17 0.18 0.17 0.15 0.14 0.13 0.12 0.11 0.10 0.09 0.08 0.08 0.08 0.07 0.06 0.05 0.04 0.05 0.05 0.06 0.04 0.03 0.02 0.02 0.01 0.01 0.01 0.01 0.01 0.01 0.01 0.00 0.00 0.00 0.00 0.00 0.01 0.01 0.01 0.02 0.03 0.03 0.03
0.16 0.16 0.15 0.15 0.14 0.13 0.11 0.10 0.09 0.08 0.07 0.06 0.06 0.05 0.04 0.03 0.03 0.02 0.02 0.02 0.02 0.02 0.02 0.01 0.01 0.01 0.00 0.00 0.00 0.00 0.00 0.00 0.00 0.00 0.00 0.00 0.00 0.00 0.00 0.01 0.01 0.01 0.02
0.15 0.13 0.11 0.11 0.11 0.11 0.09 0.06 0.05 0.04 0.04 0.03 0.03 0.02 0.02 0.01 0.01 0.01 0.02 0.02 0.02 0.02 0.02 0.01 0.01 0.00 0.00 0.00 0.00 0.00 0.01 0.00 0.00 0.00 0.00 0.00 0.00 0.00 0.00 0.00 0.01 0.01 0.02
0.09 0.09 0.08 0.07 0.06 0.05 0.04 0.03 0.02 0.02 0.02 0.02 0.02 0.02 0.02 0.02 0.01 0.01 0.01 0.01 0.01 0.01 0.00 0.00 0.00 0.00 0.00 0.00 0.00 0.00 0.00 0.00 0.00 0.00 0.00 0.00 0.00 0.00 0.00 0.00 0.00 0.01 0.01
0.05 0.06 0.05 0.04 0.04 0.03 0.02 0.02 0.01 0.01 0.02 0.02 0.01 0.01 0.01 0.01 0.01 0.00 0.00 0.00 0.00 0.00 0.00 0.00 0.00 0.00 0.00 0.00 0.00 0.00 0.00 0.00 0.00 0.00 0.00 0.00 0.00 0.00 0.00 0.00 0.00 0.01 0.01
0.04 0.03 0.02 0.02 0.02 0.02 0.02 0.02 0.01 0.01 0.01 0.01 0.00 0.00 0.00 0.00 0.00 0.00 0.00 0.00 0.00 0.00 0.00 0.00 0.00 0.00 0.00 0.00 0.00 0.00 0.00 0.00 0.00 0.00 0.00 0.00 0.00 0.00 0.00 0.00 0.00 0.00 0.00
0.03 0.02 0.01 0.01 0.01 0.00 0.01 0.00 0.01 0.01 0.00 0.00 0.00 0.00 0.00 0.00 0.00 0.00 0.00 0.00 0.00 0.00 0.00 0.00 0.00 0.01 0.00 0.00 0.00 0.00 0.00 0.01 0.00 0.00 0.00 0.00 0.00 0.00 0.00 0.00 0.00 0.00 0.00
0.01 0.01 0.01 0.00 0.00 0.00 0.00 0.00 0.00 0.00 0.00 0.00 0.00 0.00 0.00 0.00 0.00 0.00 0.00 0.00 0.01 0.01 0.01 0.01 0.01 0.01 0.01 0.01 0.01 0.02 0.02 0.02 0.01 0.00 0.01 0.00 0.00 0.00 0.00 0.00 0.00 0.00 0.00
0.01 0.01 0.00 0.00 0.00 0.00 0.00 0.00 0.00 0.00 0.01 0.01 0.00 0.00 0.00 0.00 0.00 0.00 0.00 0.00 0.00 0.01 0.02 0.03 0.03 0.03 0.04 0.03 0.02 0.01 0.02 0.03 0.04 0.02 0.02 0.02 0.02 0.03 0.03 0.01 0.00 0.00 0.00
0.01 0.01 0.00 0.00 0.00 0.00 0.00 0.00 0.00 0.01 0.01 0.01 0.01 0.01 0.00 0.00 0.00 0.00 0.00 0.00 0.00 0.00 0.00 0.02 0.03 0.04 0.04 0.03 0.02 0.02 0.02 0.03 0.06 0.04 0.03 0.04 0.03 0.05 0.05 0.03 0.01 0.00 0.00
0.01 0.01 0.01 0.00 0.00 0.00 0.00 0.00 0.00 0.01 0.02 0.02 0.02 0.02 0.01 0.00 0.00 0.00 0.00 0.01 0.01 0.00 0.00 0.00 0.02 0.03 0.03 0.03 0.02 0.02 0.03 0.04 0.05 0.04 0.04 0.06 0.05 0.05 0.03 0.01 0.01 0.00 0.00
0.02 0.02 0.01 0.01 0.01 0.00 0.00 0.00 0.00 0.01 0.03 0.02 0.01 0.02 0.03 0.02 0.00 0.00 0.01 0.04 0.06 0.03 0.01 0.00 0.01 0.01 0.01 0.01 0.01 0.01 0.03 0.05 0.08 0.07 0.04 0.06 0.06 0.06 0.04 0.03 0.01 0.00 0.00
0.03 0.03 0.02 0.03 0.02 0.00 0.00 0.00 0.00 0.01 0.03 0.02 0.01 0.00 0.01 0.01 0.00 0.00 0.02 0.07 0.07 0.04 0.00 0.00 0.00 0.00 0.00 0.00 0.00 0.01 0.03 0.07 0.08 0.07 0.06 0.06 0.07 0.06 0.07 0.06 0.02 0.00 0.00
0.03 0.02 0.02 0.02 0.02 0.01 0.00 0.00 0.00 0.01 0.03 0.03 0.03 0.02 0.00 0.00 0.00 0.00 0.01 0.03 0.03 0.02 0.02 0.03 0.03 0.02 0.02 0.02 0.01 0.02 0.07 0.08 0.07 0.07 0.07 0.06 0.07 0.08 0.09 0.08 0.05 0.02 0.02
MSLP
1013.86 1014.08 1014.24 1014.39 1014.56 1014.80 1015.08 1015.39 1015.70 1015.95 1016.15 1016.27 1016.35 1016.42 1016.54 1016.74 1017.04 1017.42 1017.84 1018.26 1018.61 1018.85 1018.96 1018.93 1018.81 1018.64 1018.48 1018.36 1018.33 1018.37 1018.49 1018.66 1018.84 1019.02 1019.18 1019.32 1019.44 1019.55 1019.67 1019.78 1019.89 1019.99 1020.08
1013.83 1014.04 1014.18 1014.29 1014.44 1014.65 1014.93 1015.26 1015.60 1015.94 1016.22 1016.45 1016.64 1016.80 1016.99 1017.21 1017.50 1017.84 1018.21 1018.58 1018.88 1019.09 1019.19 1019.19 1019.10 1018.96 1018.83 1018.73 1018.70 1018.74 1018.84 1018.99 1019.15 1019.32 1019.47 1019.60 1019.71 1019.81 1019.90 1019.99 1020.06 1020.12 1020.15
1013.91 1014.10 1014.22 1014.31 1014.44 1014.64 1014.92 1015.27 1015.68 1016.09 1016.48 1016.83 1017.12 1017.37 1017.61 1017.85 1018.12 1018.41 1018.71 1019.00 1019.25 1019.43 1019.53 1019.54 1019.49 1019.40 1019.31 1019.25 1019.24 1019.28 1019.37 1019.50 1019.64 1019.79 1019.92 1020.03 1020.13 1020.20 1020.27 1020.32 1020.35 1020.35 1020.33
1014.05 1014.22 1014.32 1014.40 1014.51 1014.71 1015.00 1015.39 1015.85 1016.34 1016.83 1017.28 1017.67 1018.01 1018.30 1018.55 1018.80 1019.04 1019.28 1019.50 1019.69 1019.84 1019.93 1019.97 1019.96 1019.93 1019.90 1019.88 1019.89 1019.94 1020.03 1020.14 1020.26 1020.37 1020.48 1020.56 1020.63 1020.68 1020.71 1020.71 1020.70 1020.65 1020.57
1014.18 1014.34 1014.42 1014.49 1014.60 1014.80 1015.10 1015.51 1016.02 1016.58 1017.15 1017.68 1018.17 1018.58 1018.92 1019.20 1019.43 1019.64 1019.83 1020.00 1020.16 1020.29 1020.39 1020.45 1020.49 1020.51 1020.53 1020.55 1020.59 1020.65 1020.73 1020.82 1020.91 1021.00 1021.07 1021.13 1021.16 1021.17 1021.16 1021.12 1021.06 1020.96 1020.84
1014.27 1014.41 1014.49 1014.56 1014.67 1014.87 1015.17 1015.60 1016.12 1016.72 1017.34 1017.94 1018.49 1018.97 1019.36 1019.68 1019.93 1020.13 1020.30 1020.46 1020.60 1020.73 1020.85 1020.95 1021.03 1021.10 1021.17 1021.23 1021.29 1021.35 1021.42 1021.49 1021.56 1021.61 1021.65 1021.67 1021.66 1021.63 1021.58 1021.50 1021.39 1021.26 1021.10
1014.32 1014.46 1014.55 1014.62 1014.74 1014.93 1015.22 1015.63 1016.15 1016.75 1017.39 1018.03 1018.62 1019.15 1019.59 1019.95 1020.23 1020.46 1020.65 1020.82 1020.98 1021.13 1021.28 1021.43 1021.55 1021.67 1021.77 1021.86 1021.94 1022.00 1022.06 1022.11 1022.15 1022.17 1022.17 1022.15 1022.11 1022.03 1021.94 1021.82 1021.67 1021.51 1021.32
1014.36 1014.52 1014.63 1014.72 1014.84 1015.01 1015.28 1015.66 1016.14 1016.71 1017.33 1017.97 1018.58 1019.14 1019.63 1020.03 1020.36 1020.63 1020.87 1021.08 1021.28 1021.48 1021.67 1021.86 1022.03 1022.18 1022.31 1022.42 1022.50 1022.56 1022.61 1022.64 1022.66 1022.65 1022.62 1022.57 1022.49 1022.38 1022.24 1022.08 1021.90 1021.71 1021.50
1014.47 1014.68 1014.83 1014.94 1015.06 1015.21 1015.44 1015.76 1016.18 1016.69 1017.26 1017.87 1018.47 1019.04 1019.55 1019.99 1020.37 1020.70 1020.99 1021.25 1021.50 1021.75 1021.99 1022.22 1022.43 1022.61 1022.76 1022.87 1022.96 1023.02 1023.05 1023.07 1023.07 1023.04 1022.99 1022.91 1022.80 1022.66 1022.49 1022.29 1022.08 1021.86 1021.64
1014.74 1015.01 1015.20 1015.34 1015.46 1015.59 1015.77 1016.02 1016.36 1016.79 1017.29 1017.84 1018.40 1018.95 1019.47 1019.93 1020.35 1020.71 1021.05 1021.36 1021.66 1021.95 1022.23 1022.49 1022.72 1022.92 1023.08 1023.20 1023.28 1023.34 1023.37 1023.38 1023.36 1023.33 1023.28 1023.19 1023.06 1022.90 1022.70 1022.47 1022.23 1021.98 1021.75
1015.19 1015.53 1015.77 1015.94 1016.06 1016.17 1016.30 1016.48 1016.73 1017.07 1017.49 1017.96 1018.47 1018.98 1019.47 1019.94 1020.36 1020.75 1021.10 1021.44 1021.76 1022.08 1022.38 1022.65 1022.90 1023.10 1023.26 1023.38 1023.46 1023.51 1023.53 1023.54 1023.54 1023.52 1023.47 1023.39 1023.27 1023.09 1022.88 1022.63 1022.36 1022.09 1021.83
1015.84 1016.24 1016.53 1016.72 1016.84 1016.92 1017.00 1017.12 1017.29 1017.55 1017.88 1018.27 1018.71 1019.17 1019.62 1020.05 1020.46 1020.83 1021.18 1021.52 1021.84 1022.15 1022.44 1022.71 1022.95 1023.14 1023.29 1023.40 1023.47 1023.52 1023.55 1023.57 1023.58 1023.58 1023.56 1023.50 1023.40 1023.24 1023.03 1022.77 1022.49 1022.20 1021.91
1016.62 1017.07 1017.39 1017.60 1017.72 1017.78 1017.82 1017.88 1017.99 1018.18 1018.44 1018.76 1019.13 1019.53 1019.92 1020.30 1020.66 1020.99 1021.30 1021.60 1021.89 1022.17 1022.43 1022.67 1022.88 1023.06 1023.19 1023.28 1023.34 1023.38 1023.41 1023.45 1023.48 1023.51 1023.53 1023.51 1023.44 1023.31 1023.13 1022.89 1022.60 1022.29 1021.99
1017.46 1017.94 1018.28 1018.50 1018.60 1018.65 1018.66 1018.68 1018.75 1018.89 1019.09 1019.36 1019.67 1020.01 1020.34 1020.66 1020.96 1021.22 1021.47 1021.71 1021.94 1022.16 1022.37 1022.57 1022.74 1022.88 1022.99 1023.05 1023.10 1023.13 1023.16 1023.20 1023.26 1023.32 1023.38 1023.40 1023.39 1023.31 1023.17 1022.95 1022.69 1022.39 1022.07
1018.28 1018.77 1019.11 1019.32 1019.42 1019.44 1019.44 1019.44 1019.49 1019.60 1019.77 1020.01 1020.28 1020.56 1020.84 1021.10 1021.32 1021.52 1021.69 1021.85 1022.01 1022.17 1022.32 1022.47 1022.59 1022.69 1022.75 1022.79 1022.81 1022.82 1022.85 1022.89 1022.95 1023.04 1023.13 1023.20 1023.24 1023.22 1023.13 1022.97 1022.74 1022.46 1022.15
1019.03 1019.50 1019.82 1020.02 1020.11 1020.12 1020.11 1020.11 1020.15 1020.26 1020.42 1020.64 1020.88 1021.14 1021.37 1021.57 1021.74 1021.86 1021.96 1022.05 1022.14 1022.23 1022.32 1022.41 1022.49 1022.54 1022.57 1022.57 1022.55 1022.54 1022.54 1022.56 1022.62 1022.71 1022.82 1022.93 1023.01 1023.05 1023.02 1022.91 1022.74 1022.51 1022.23
1019.68 1020.12 1020.42 1020.60 1020.67 1020.69 1020.68 1020.68 1020.73 1020.84 1021.01 1021.22 1021.46 1021.69 1021.90 1022.06 1022.18 1022.25 1022.29 1022.32 1022.35 1022.38 1022.43 1022.47 1022.50 1022.51 1022.50 1022.46 1022.41 1022.35 1022.31 1022.30 1022.33 1022.40 1022.51 1022.63 1022.74 1022.82 1022.84 1022.80 1022.69 1022.52 1022.29
1020.27 1020.66 1020.94 1021.09 1021.16 1021.18 1021.17 1021.18 1021.24 1021.36 1021.54 1021.76 1022.00 1022.23 1022.42 1022.56 1022.64 1022.68 1022.68 1022.67 1022.66 1022.65 1022.65 1022.66 1022.66 1022.64 1022.59 1022.51 1022.41 1022.30 1022.21 1022.15 1022.13 1022.16 1022.23 1022.34 1022.46 1022.56 1022.63 1022.64 1022.59 1022.48 1022.31
1020.81 1021.16 1021.41 1021.56 1021.62 1021.63 1021.63 1021.66 1021.73 1021.86 1022.05 1022.27 1022.51 1022.73 1022.92 1023.05 1023.12 1023.14 1023.12 1023.08 1023.05 1023.02 1022.99 1022.98 1022.95 1022.90 1022.82 1022.70 1022.56 1022.40 1022.25 1022.12 1022.04 1022.01 1022.04 1022.11 1022.20 1022.31 1022.39 1022.44 1022.44 1022.38 1022.27
1021.33 1021.66 1021.89 1022.02 1022.08 1022.10 1022.11 1022.14 1022.21 1022.35 1022.54 1022.76 1023.00 1023.22 1023.40 1023.52 1023.59 1023.60 1023.57 1023.53 1023.48 1023.43 1023.40 1023.36 1023.31 1023.24 1023.14 1022.99 1022.81 1022.61 1022.41 1022.22 1022.07 1021.97 1021.93 1021.95 1022.00 1022.07 1022.15 1022.21 1022.24 1022.22 1022.16
1021.85 1022.15 1022.36 1022.49 1022.56 1022.58 1022.59 1022.62 1022.70 1022.83 1023.01 1023.23 1023.46 1023.67 1023.84 1023.96 1024.02 1024.03 1024.00 1023.95 1023.89 1023.84 1023.79 1023.74 1023.68 1023.59 1023.47 1023.31 1023.10 1022.87 1022.62 1022.38 1022.17 1022.01 1021.90 1021.85 1021.85 1021.88 1021.93 1021.97 1022.00 1022.01 1021.98
1022.32 1022.60 1022.81 1022.94 1023.01 1023.04 1023.06 1023.10 1023.17 1023.29 1023.46 1023.66 1023.87 1024.07 1024.23 1024.35 1024.40 1024.41 1024.37 1024.31 1024.24 1024.18 1024.11 1024.04 1023.97 1023.87 1023.73 1023.55 1023.33 1023.08 1022.81 1022.54 1022.29 1022.07 1021.91 1021.80 1021.74 1021.71 1021.72 1021.73 1021.75 1021.75 1021.73
1022.72 1022.98 1023.18 1023.32 1023.40 1023.45 1023.48 1023.51 1023.59 1023.70 1023.85 1024.03 1024.22 1024.40 1024.55 1024.65 1024.70 1024.69 1024.65 1024.57 1024.48 1024.39 1024.30 1024.21 1024.11 1023.99 1023.84 1023.66 1023.44 1023.19 1022.91 1022.63 1022.36 1022.12 1021.92 1021.76 1021.65 1021.57 1021.53 1021.50 1021.48 1021.46 1021.42
1022.99 1023.24 1023.45 1023.60 1023.70 1023.76 1023.80 1023.85 1023.92 1024.03 1024.16 1024.33 1024.50 1024.66 1024.79 1024.87 1024.90 1024.88 1024.81 1024.72 1024.60 1024.47 1024.35 1024.22 1024.09 1023.95 1023.79 1023.60 1023.39 1023.15 1022.89 1022.62 1022.36 1022.12 1021.90 1021.71 1021.56 1021.44 1021.35 1021.27 1021.21 1021.15 1021.10
1023.14 1023.39 1023.60 1023.77 1023.89 1023.98 1024.04 1024.11 1024.18 1024.28 1024.41 1024.55 1024.70 1024.84 1024.95 1025.01 1025.02 1024.98 1024.89 1024.76 1024.61 1024.45 1024.28 1024.11 1023.94 1023.77 1023.59 1023.40 1023.19 1022.97 1022.74 1022.50 1022.26 1022.03 1021.82 1021.63 1021.46 1021.30 1021.17 1021.06 1020.95 1020.86 1020.77
1023.18 1023.44 1023.67 1023.86 1024.01 1024.13 1024.22 1024.31 1024.39 1024.49 1024.61 1024.73 1024.86 1024.97 1025.05 1025.09 1025.08 1025.02 1024.90 1024.74 1024.56 1024.35 1024.14 1023.92 1023.71 1023.51 1023.31 1023.11 1022.90 1022.70 1022.49 1022.28 1022.08 1021.88 1021.68 1021.49 1021.31 1021.14 1020.98 1020.83 1020.70 1020.57 1020.45
Thickness
5745 5745 5742 5741 5741 5741 5741 5740 5740 5740 5741 5741 5741 5740 5740 5739 5737 5734 5730 5728 5727 5725 5723 5721 5719 5717 5715 5714 5712 5710 5708 5706 5704 5702 5701 5699 5697 5695 5693 5692 5690 5689 5688
5741 5742 5741 5740 5740 5741 5741 5741 5741 5739 5737 5737 5736 5736 5735 5734 5732 5730 5727 5724 5722 5720 5719 5717 5715 5713 5711 5710 5708 5707 5705 5703 5701 5699 5697 5695 5693 5691 5689 5687 5686 5684 5683
5737 5736 5737 5736 5737 5738 5738 5737 5737 5737 5734 5732 5731 5730 5729 5728 5726 5724 5721 5719 5716 5713 5712 5710 5708 5707 5706 5704 5703 5702 5700 5698 5696 5694 5692 5690 5688 5686 5684 5682 5681 5679 5678
5733 5732 5732 5731 5732 5734 5734 5730 5731 5730 5728 5725 5724 5723 5722 5720 5719 5717 5714 5711 5709 5706 5703 5702 5701 5699 5698 5697 5696 5694 5693 5692 5690 5688 5686 5684 5682 5680 5678 5676 5675 5673 5671
5728 5726 5726 5726 5726 5727 5727 5725 5724 5723 5719 5718 5717 5716 5714 5713 5711 5708 5705 5702 5700 5698 5696 5694 5692 5691 5690 5688 5687 5686 5685 5684 5683 5681 5679 5676 5674 5672 5670 5668 5666 5665 5663
5721 5720 5720 5720 5720 5720 5720 5718 5716 5715 5713 5711 5711 5708 5706 5705 5703 5699 5696 5693 5691 5689 5687 5685 5683 5681 5680 5678 5677 5676 5675 5674 5673 5671 5669 5667 5665 5662 5660 5658 5656 5655 5653
5715 5714 5715 5714 5714 5713 5713 5712 5711 5707 5705 5704 5700 5695 5694 5695 5692 5690 5687 5685 5682 5679 5677 5675 5673 5671 5669 5667 5665 5664 5664 5663 5661 5659 5657 5655 5653 5651 5649 5647 5645 5644 5642
5708 5708 5708 5708 5708 5707 5706 5705 5704 5701 5698 5699 5695 5688 5682 5680 5681 5680 5677 5674 5672 5669 5667 5664 5662 5660 5658 5656 5653 5652 5651 5649 5648 5647 5644 5642 5640 5638 5636 5634 5633 5631 5630
5700 5701 5701 5701 5700 5699 5697 5696 5697 5695 5691 5691 5690 5686 5679 5673 5668 5666 5665 5663 5661 5659 5657 5654 5652 5650 5647 5645 5642 5640 5638 5637 5635 5634 5631 5629 5627 5625 5623 5622 5620 5618 5617
5689 5691 5691 5690 5690 5689 5688 5687 5687 5687 5686 5681 5680 5679 5677 5675 5666 5656 5653 5652 5651 5648 5646 5645 5642 5639 5636 5634 5630 5628 5626 5624 5622 5620 5618 5616 5614 5612 5610 5609 5607 5605 5604
5676 5678 5678 5678 5677 5676 5676 5676 5676 5676 5676 5674 5671 5669 5667 5665 5663 5655 5645 5642 5640 5638 5636 5634 5632 5629 5626 5624 5620 5616 5614 5612 5610 5608 5606 5604 5602 5599 5597 5596 5594 5591 5590
5663 5663 5664 5664 5664 5664 5664 5664 5663 5663 5662 5661 5660 5659 5657 5654 5650 5648 5641 5635 5631 5627 5626 5625 5623 5619 5617 5613 5610 5606 5603 5600 5598 5596 5593 5591 5589 5587 5584 5582 5580 5577 5575
5650 5649 5650 5651 5651 5651 5652 5652 5651 5650 5649 5648 5647 5646 5646 5644 5642 5640 5635 5629 5624 5619 5617 5616 5613 5610 5607 5603 5600 5596 5593 5590 5588 5585 5582 5579 5577 5574 5571 5568 5566 5563 5560
5639 5638 5638 5639 5638 5639 5639 5639 5639 5638 5637 5637 5635 5633 5632 5632 5632 5630 5627 5623 5618 5613 5610 5607 5605 5601 5597 5594 5591 5587 5583 5580 5577 5574 5571 5568 5564 5561 5558 5555 5552 5549 5546
5628 5627 5628 5627 5627 5627 5627 5627 5626 5625 5626 5626 5623 5622 5622 5621 5621 5621 5619 5617 5612 5606 5601 5599 5596 5591 5588 5585 5581 5578 5575 5571 5568 5564 5560 5556 5552 5549 5545 5542 5539 5536 5532
5618 5617 5618 5617 5617 5616 5616 5616 5615 5615 5615 5614 5612 5611 5610 5610 5611 5610 5609 5607 5605 5600 5594 5591 5587 5581 5578 5575 5571 5568 5566 5562 5558 5553 5549 5545 5541 5537 5534 5530 5526 5523 5520
5609 5608 5608 5608 5608 5606 5606 5605 5605 5606 5605 5604 5602 5601 5599 5599 5599 5599 5597 5594 5591 5588 5583 5580 5577 5572 5568 5564 5561 5559 5557 5554 5549 5545 5540 5536 5531 5527 5523 5519 5515 5512 5509
5600 5599 5599 5599 5598 5597 5597 5597 5597 5596 5595 5593 5592 5591 5590 5589 5587 5585 5584 5582 5579 5576 5572 5568 5565 5561 5558 5555 5552 5550 5548 5545 5541 5537 5532 5527 5522 5518 5514 5510 5507 5503 5500
5590 5589 5589 5589 5588 5588 5588 5587 5587 5586 5585 5583 5581 5580 5577 5575 5573 5572 5571 5569 5567 5564 5560 5557 5554 5551 5549 5546 5543 5541 5539 5535 5533 5530 5524 5519 5515 5511 5507 5503 5499 5496 5493
5580 5580 5580 5579 5579 5578 5577 5577 5576 5576 5574 5572 5570 5568 5565 5562 5560 5559 5559 5555 5554 5551 5549 5546 5543 5540 5537 5535 5532 5529 5527 5525 5524 5522 5518 5515 5511 5506 5501 5497 5494 5490 5487
5570 5570 5570 5569 5568 5565 5562 5562 5565 5565 5563 5561 5559 5556 5553 5550 5548 5546 5545 5542 5540 5538 5536 5533 5531 5528 5525 5523 5520 5519 5516 5515 5515 5514 5511 5510 5506 5502 5497 5493 5489 5486 5483
5560 5559 5558 5556 5555 5552 5549 5550 5551 5553 5553 5551 5549 5547 5544 5541 5538 5535 5534 5531 5528 5526 5524 5522 5520 5517 5515 5513 5511 5510 5507 5506 5504 5506 5504 5503 5503 5499 5496 5492 5487 5484 5479
5550 5549 5546 5544 5542 5539 5539 5540 5540 5541 5542 5540 5539 5538 5538 5532 5528 5526 5525 5523 5520 5517 5515 5513 5511 5509 5508 5506 5504 5502 5501 5499 5499 5500 5500 5498 5499 5497 5494 5490 5486 5481 5477
5540 5539 5538 5535 5533 5530 5529 5530 5530 5532 5532 5531 5529 5527 5524 5519 5516 5514 5515 5516 5515 5513 5510 5507 5507 5505 5503 5500 5498 5497 5496 5497 5498 5499 5498 5494 5495 5493 5492 5488 5484 5479 5475
5532 5531 5530 5528 5524 5520 5520 5520 5520 5523 5524 5522 5519 5515 5514 5510 5506 5506 5508 5507 5507 5506 5505 5502 5501 5500 5499 5497 5494 5491 5492 5492 5492 5493 5494 5492 5491 5490 5489 5486 5482 5478 5474
5525 5524 5522 5520 5517 5513 5511 5512 5513 5516 5515 5513 5510 5506 5503 5501 5499 5498 5498 5498 5497 5496 5496 5497 5497 5497 5497 5495 5493 5489 5488 5487 5487 5487 5489 5488 5487 5485 5483 5483 5481 5478 5474